Location: Robert Brownlee Observatory
(34.2308°N, 117.2089°W)
Time: 04:35:44
(UTC-08:00)

Cosmos 1943 - Visible Passes

Search period start: 24 February 2017 00:00
Search period end: 06 March 2017 00:00
Orbit: 832 x 852 km, 71.0° (Epoch: 24 February)

Date Brightness Start Highest point End Pass type
(mag) Time Alt. Az. Time Alt. Az. Time Alt. Az.
03 Mar 5.9 20:58:28 10° N 20:58:31 10° N 20:58:31 10° N visible
04 Mar 5.6 20:43:32 10° N 20:44:13 13° N 20:44:13 13° N visible
05 Mar 5.3 20:28:35 10° N 20:29:58 17° N 20:29:58 17° N visible
